Tracking 35331 objects as of 14-Sep-2026
HD Live streaming from Space Station
objects crossing your sky now

PSLV DEB


PSLV DEB is no longer on orbit


NORAD ID: 27098
Int'l Code: 2001-049AS
Launch date: October 22, 2001
Source: India (IND)
Launch site: SRIHARIKOTA (SRI)
Decay date: 2012-04-21

Note: This is SATELLITE DEBRIS
Your satellite tracking list
Your tracking list is empty




NASA's NSSDC Master Catalog

Two Line Element Set (TLE):
1 27098U 01049AS  12112.37820077  .99999999  54236-5  64889-3 0  9996
2 27098 097.7539 341.1874 0002509 174.7634 200.1185 16.55092661606947
Source of the keplerian elements: AFSPC